Location: Bastelaar
(51.0950°N, 3.8602°E)
Time: 07:43:11
(UTC+00:00)

Cosmos 1656 Rocket - Pass Details

Date: 18 November 2025
Orbit: 791 x 846 km, 71.1° (Epoch: 13 December)

Event Time Altitude Azimuth Distance (km) Brightness Sun altitude
Rises 18:00:23 0° 183° (S) 3,331 6.9 -19.7°
Reaches altitude 10° 18:02:54 10° 176° (S) 2,412 6.1 -20.1°
Maximum altitude 18:08:01 40° 108° (ESE) 1,212 4.0 -20.9°
Enters shadow 18:08:02 40° 108° (ESE) 1,212 4.0 -20.9°
